Regional Weather Roundup
Issued by NWS

Home | Current Version | Previous Version | Text Only | Print | Product List | Glossary On
Versions: 1 2 3 4 5 6 7 8 9 10 11 12 13 14 15 16 17 18 19 20 21 22 23 24 25 26 27 28 29 30 31 32 33 34 35 36 37 38 39 40 41 42 43 44 45 46 47 48 49 50
000
ASUS46 KLOX 241613
RWRCA

SOUTHERN CALIFORNIA WEATHER ROUNDUP
NATIONAL WEATHER SERVICE OXNARD CALIFORNIA
900 AM PDT TUE MAY 24 2016

NOTE: "FAIR" INDICATES FEW OR NO CLOUDS BELOW 12,000 FEET WITH NO
SIGNIFICANT WEATHER AND/OR OBSTRUCTIONS TO VISIBILITY.

  -  STATIONS PRECEEDED BY AN ASTERISK (*) ARE NOT NWS OR FAA
     STATIONS AND ARE NOT SUBJECT TO NWS AND FAA QUALITY CONTROL.

CAZ041-042-087-241700-
LA AND ORANGE COUNTY COASTAL AREAS


CITY           SKY/WX    TMP DP  RH WIND       PRES   REMARKS
L.A. DOWNTOWN  PTSUNNY   65  51  60 SE3       29.97R
L.A. AIRPORT   PTSUNNY   62  50  64 S5        29.98R
LONG BEACH     MOSUNNY   63  50  62 SE5       29.98R

CITY           SKY/WX    TMP DP  RH WIND       PRES   REMARKS
AVALON           N/A     61 N/A N/A E3          N/A
FULLERTON      CLOUDY    63  50  62 SE3       29.98R
*GETTY CENTER    N/A     59  50  72 SE3G9       N/A
HAWTHORNE      PTSUNNY   62  49  62 SE5       29.99R
*LOS ALAMITOS  MOSUNNY   64  51  63 S6        29.98R
*REDONDO BEACH   N/A     62  53  72 W3        29.98R
SANTA ANA      PTSUNNY   63  51  65 SW6       29.98R
STA MONICA APT PTSUNNY   62  51  67 VRB3      29.98R
TORRANCE       PTSUNNY   66  52  59 VRB5      29.99R
*UCLA            N/A     61  48  63 SE5       29.96R

$$

CAZ547-548-048-241700-
LA COUNTY VALLEYS AND INLAND EMPIRE


CITY           SKY/WX    TMP DP  RH WIND       PRES   REMARKS
BURBANK        CLOUDY    60  49  66 SE3       29.97R
VAN NUYS       PTSUNNY   60  49  66 S6        29.97R

CITY           SKY/WX    TMP DP  RH WIND       PRES   REMARKS
CORONA AIRPORT MOSUNNY   63  49  60 VRB3      29.99R
*CHATSWORTH      N/A     60  50  70 SW2       29.99R
CHINO          PTSUNNY   64  48  56 VRB3      29.99R
*CLAREMONT       N/A     54  52  92 CALM        N/A
MARCH AFB      MOSUNNY   60  46  60 VRB2      29.98R
*NORTHRIDGE      N/A     59  46  63 S3          N/A
ONTARIO        PTSUNNY   59  48  67 SW6       29.98R
*PASADENA        N/A     59  52  77 E3          N/A
POMONA           N/A     57  48  72 VRB5      30.01R
RIVERSIDE      PTSUNNY   61  47  59 CALM      29.98R
SAN BERNARDINO CLOUDY    61  46  59 CALM      29.99R
*SAN GABRIEL     N/A     63  52  68 E1        30.05R
*WHITEMAN AP   CLOUDY    59  46  63 SE6       30.01R
*WHITTIER HILL   N/A     63  53  69 S3          N/A
*WOODLAND HILL   N/A     61  48  63 SE1         N/A

$$

CAZ054-055-241700-
LA AND SAN BERNARDINO COUNTY MOUNTAINS


CITY           SKY/WX    TMP DP  RH WIND       PRES   REMARKS
*ACTON           N/A     56  44  64 W7          N/A
*BIG BEAR AIRP SUNNY     43  27  52 W12       29.98R
*CHILAO          N/A     42  40  92 SW5         N/A
SANDBERG       PTSUNNY   49  41  74 SW12      29.99R

$$

CAZ028-029-059-060-099-241700-
ANTELOPE VALLEY AND SURROUNDING AREAS


CITY           SKY/WX    TMP DP  RH WIND       PRES   REMARKS
LANCASTER      SUNNY     59  42  53 SW23G29   29.93R
PALMDALE       SUNNY     59  42  53 SW18      29.93S

CITY           SKY/WX    TMP DP  RH WIND       PRES   REMARKS
29 PALMS       SUNNY     65  37  35 W8        29.95R
BARSTOW/DAGGET SUNNY     64  41  42 SW22G32   29.88R
BISHOP         MOSUNNY   57  37  47 S6        29.87S
CHINA LAKE     MOSUNNY   67  34  29 N8        29.83R
EDWARDS AFB    MOSUNNY   60  42  52 SW22G30   29.90R
MOJAVE         PTSUNNY   61  39  44 W17G24    29.91R
NEEDLES        SUNNY     77  37  23 SW9       29.83R
VICTORVILLE    SUNNY     59  39  47 SW13G22   29.93S

$$

CAZ039-040-241700-
VENTURA AND SANTA BARBARA COUNTY COAST


CITY           SKY/WX    TMP DP  RH WIND       PRES   REMARKS
CAMARILLO      CLOUDY    61  50  67 SW5       29.98R
NWS OXNARD       N/A     63  51  67 SW1       29.97R
OXNARD AIRPORT PTSUNNY   61  51  70 S6        29.98R
*POINT MUGU    MOSUNNY   62  53  72 SW6       29.99R
SBA APT/GOLETA MOSUNNY   61  51  70 VRB3      29.97R
*SANTA BARBARA   N/A     64  51  64 CALM      30.05S
*VENTURA         N/A     63  53  71 E3        29.96S

$$

CAZ044-045-241700-
VENTURA COUNTY VALLEYS


CITY           SKY/WX    TMP DP  RH WIND       PRES   REMARKS
*SIMI VALLEY     N/A     58  51  76 CALM      29.95R
*WESTLAKE VILL   N/A     58  49  72 CALM      29.97R
*OJAI            N/A     63  51  66 SE2       29.93R
*FILLMORE        N/A     65  53  63 CALM      29.87R

$$

CAZ053-241700-
VENTURA COUNTY MOUNTAINS


CITY           SKY/WX    TMP DP  RH WIND       PRES   REMARKS
*LOCKWOOD VLY    N/A     50  36  57 S1          N/A
*ROSE VALLEY     N/A     52  48  87 MISG        N/A

$$

CAZ034-035-036-241700-
CENTRAL COAST AND SANTA YNEZ VALLEY


CITY           SKY/WX    TMP DP  RH WIND       PRES   REMARKS
SAN LUIS OBISP CLOUDY    60  52  74 VRB5      29.99R
SANTA MARIA    PTSUNNY   58  53  84 NW5       29.99R

CITY           SKY/WX    TMP DP  RH WIND       PRES   REMARKS
*CAL POLY SLO    N/A     57  54  88 CALM        N/A
*LOMPOC        CLOUDY    58  52  80 CALM      29.99R
*PISMO BEACH     N/A     56  54  92 W2        30.00R
*SANTA YNEZ    CLOUDY    59  46  63 SW5       29.98S

$$

CAZ037-038-051-241700-
SAN LUIS OBISPO COUNTY INTERIOR AND CUYAMA VALLEY


CITY           SKY/WX    TMP DP  RH WIND       PRES   REMARKS
*CUYAMA          N/A     55  46  69 NE1       29.90S
PASO ROBLES    CLOUDY    57  47  69 VRB3      29.97R

$$

CAZ032-033-061-241700-
SOUTHERN DESERTS


CITY           SKY/WX    TMP DP  RH WIND       PRES   REMARKS
BLYTHE         SUNNY     73  44  35 SW9       29.86R
IMPERIAL       SUNNY     71  43  36 W21G26    29.89R
PALM SPRINGS   SUNNY     72  39  30 N5        29.89R
THERMAL        SUNNY     73  40  30 N20       29.85R

$$

ELSEWHERE ACROSS THE WESTERN UNITED STATES AND MEXICO


CITY           SKY/WX    TMP DP  RH WIND       PRES   REMARKS
DEATH VALLEY,    N/A     76  40  27 SE3         N/A
DENVER, CO     MOSUNNY   63  45  51 SE17      29.97F
GRAND CANYON,  SUNNY     57  24  28 SW20G25   30.01R
HONOLULU, HI   PTCLDY    72  66  83 N3        30.05R
KAHULUI, MAUI  PTCLDY    64  63  94 CALM      30.05R
LAKE TAHOE, CA CLOUDY    39  36  89 S3        29.95S
LAS VEGAS, NV  MOSUNNY   68  36  30 SW16G26   29.78R
MAMMOTH LAKES, FAIR      48  21  34 NW3       29.93R
MEXICO CITY, M SUNNY     72  50  46 N3        30.41R
PHOENIX, AZ    SUNNY     76  33  21 VRB3      29.88R
PORTLAND, OR   PTSUNNY   59  49  69 NW10      29.99R
RENO, NV       PTSUNNY   54  39  57 SW3       29.92R
SALT LAKE CITY PTSUNNY   64  39  39 S8        29.81R
SAN DIEGO, CA  PTSUNNY   65  47  52 W8        30.02R
SAN FRANCISCO, CLOUDY    57  49  74 W17       29.96R
SAN JOSE, CA   MOSUNNY   61  48  62 NW6       29.96R
SEATTLE, WA    CLOUDY    56  52  86 W5        29.98R
TIJUANA, MEX   PTSUNNY   63  48  59 SW6       30.04R

$$

STATION/POSITION TIME  TEMP    WIND        PRES    VSBY  WAVE
                       AIR SEA DIR/SP/G                  HT/PER
                 (UTC) (F)     (DEG/KT/KT) (MB)    (MI)  (FT/S)
POINT ARGUELLO B NOT AVBL
WEST SANTA BARBA 1550   55 55  310/  4/  6 1015.4R         3/ 5
POINT CONCEPTION NOT AVBL
EAST SANTA BARBA 1500   57 58  280/ 12/ 14 1015.3R
SANTA MONICA BAY 1550   59 63  270/  6/  8 1015.6R         3/ 6


USA.gov is the U.S. government's official web portal to all federal, state and local government web resources and services.